Weather in Suda

Russia / Vologda Oblast     59°08′48″N   37°34′38″E
temp.,
°C
wind,
m/s
gust,
m/s
humid.,
%
clouds,
%
prec.,
mm/h
press.,
hPa
HPBL,
m
6 march, sat
sat600:00−15nnw229557 0.0 101220
03:00−17nw239329 0.0 101420
06:00−18wnw22970 0.0 101420
09:00−15w23960 0.0 101589
12:00−9wsw249352 0.0 1014339
15:00−7wsw368976 0.1 1012705
18:00−8sw3892100 0.1 1009247
21:00−9ssw4129096 0.1 1006370
7 march, sun
sun700:00−7ssw61394100 0.3 1001820
03:00−6ssw61394100 1.4 996970
06:00−5ssw61394100 1.6 991793
09:00−4ssw51096100 2.6 989685
12:00−3s4796100 1.5 988571
15:00−4nw4696100 4.4 988559
18:00−6nw61194100 1.9 989768
21:00−8nw51194100 2.6 990608
8 march, mon
mon800:00−8nnw3795100 0.7 991346
03:00−8nne4995100 1.4 993453
06:00−10nne51193100 0.5 994555
09:00−10nne51189100 0.8 997653
12:00−10n5988100 0.1 1000753
15:00−11n5988100 0.1 1003753
18:00−12n51190100 0.1 1006653
21:00−15n41192100 0.1 1009490
9 march, tue
tue900:00−20nnw3897100 0.0 1011197
03:00−23nnw369788 0.0 1014107
06:00−26nnw23970 0.0 101651
09:00−24nnw24960 0.0 1017164
12:00−18nnw238637 0.0 1017397
15:00−15nnw248658 0.0 1017593
18:00−19n2295100 0.0 101720
21:00−24nne239562 0.0 101920
10 march, wed
wed1000:00−26nne23990 0.0 102019
03:00−28ne22970 0.0 102119
06:00−29ne22970 0.0 102119
09:00−26ene12950 0.0 1021101
12:00−20ese23870 0.0 1020322
15:00−17se23850 0.0 1018369
18:00−21se239531 0.0 101634
21:00−24se349216 0.0 101687